Fort Stockton, TX

9:18 AM CST on February 25, 2017 (GMT -0600)
Fort Stockton-Pecos County

Weather History for KFST - August, 2013

Change the Weather History Date:

Wednesday, August 14, 2013

  Actual Average Record
Temperature  
Mean Temperature 82 °F -  
Max Temperature 91 °F 91 °F 102 °F (2015)
Min Temperature 73 °F 69 °F 62 °F (2003)
Cooling Degree Days 17    
Growing Degree Days 32 (Base 50)    
Moisture  
Dew Point 59 °F    
Average Humidity 45    
Maximum Humidity 57    
Minimum Humidity 33    
Precipitation  
Precipitation 0.00 in - - ()
Sea Level Pressure  
Sea Level Pressure 29.92 in    
Wind  
Wind Speed 9 mph (East)    
Max Wind Speed 18 mph    
Max Gust Speed 29 mph    
Visibility 10 miles    
Events      
Averages and records for this station are not official NWS values.
T = Trace of Precipitation, MM = Missing Value Source: NWS Daily Summary

Daily Weather History Graph

Daily Weather History Graph

Search for Another Location

Airport or City:

Trip Planner

Search our weather history database for the weather conditions in past years. The results will help you decide how hot, cold, wet, or windy it might be!

Date:

Astronomy

Aug. 14, 2013 Rise Set
Actual Time 7:17 AM CDT 8:34 PM CDT
Civil Twilight 6:51 AM CDT 9:00 PM CDT
Nautical Twilight 6:21 AM CDT 9:30 PM CDT
Astronomical Twilight 5:50 AM CDT 10:01 PM CDT
Moon 2:44 PM CDT (8/14) 12:45 AM CDT (8/14)
Length of Visible Light 14h 08m
Length of Day
13h 17m
First Quarter, 53% of the Moon is Illuminated
Aug 14
First Quarter
Aug 20
Full
Aug 28
Last Quarter
Sep 5
New
Sep 12
First Quarter

Hourly Weather History & Observations

Time (CDT) Temp. Heat Index Dew Point Humidity Pressure Visibility Wind Dir Wind Speed Gust Speed Precip Events Conditions
12:53 AM 81.0 °F 81.6 °F 60.1 °F 49% 29.90 in 10.0 mi SSE 6.9 mph - N/A   Clear
1:53 AM 81.0 °F 81.3 °F 59.0 °F 47% 29.88 in 10.0 mi SSE 10.4 mph - N/A   Clear
2:53 AM 78.1 °F - 59.0 °F 52% 29.88 in 10.0 mi SSE 3.5 mph - N/A   Clear
3:53 AM 77.0 °F - 59.0 °F 54% 29.88 in 10.0 mi ESE 4.6 mph - N/A   Clear
4:53 AM 77.0 °F - 59.0 °F 54% 29.88 in 10.0 mi SE 8.1 mph - N/A   Clear
5:53 AM 77.0 °F - 57.9 °F 52% 29.88 in 10.0 mi SE 6.9 mph - N/A   Clear
6:53 AM 75.0 °F - 59.0 °F 57% 29.90 in 10.0 mi SSE 5.8 mph - N/A   Clear
7:53 AM 73.9 °F - 57.9 °F 57% 29.93 in 10.0 mi SE 4.6 mph - N/A   Clear
8:53 AM 78.1 °F - 59.0 °F 52% 29.94 in 10.0 mi SSE 6.9 mph - N/A   Clear
9:53 AM 81.0 °F 81.6 °F 60.1 °F 49% 29.98 in 10.0 mi ENE 13.8 mph - N/A   Clear
10:53 AM 82.0 °F 83.1 °F 63.0 °F 52% 30.00 in 10.0 mi NE 18.4 mph 24.2 mph N/A   Clear
11:53 AM 84.9 °F 85.4 °F 62.1 °F 46% 30.01 in 10.0 mi NE 16.1 mph 25.3 mph N/A   Mostly Cloudy
12:53 PM 86.0 °F 85.7 °F 60.1 °F 41% 30.00 in 10.0 mi NE 15.0 mph 28.8 mph N/A   Partly Cloudy
1:53 PM 88.0 °F 87.1 °F 59.0 °F 37% 29.98 in 10.0 mi East 15.0 mph 24.2 mph N/A   Clear
2:53 PM 90.0 °F 88.8 °F 57.9 °F 34% 29.95 in 10.0 mi ENE 13.8 mph - N/A   Clear
3:53 PM 90.0 °F 88.8 °F 57.9 °F 34% 29.93 in 10.0 mi ENE 11.5 mph 20.7 mph N/A   Clear
4:53 PM 91.0 °F 90.2 °F 59.0 °F 34% 29.90 in 10.0 mi NNE 5.8 mph - N/A   Clear
5:53 PM 91.9 °F 91.2 °F 59.0 °F 33% 29.88 in 10.0 mi ESE 9.2 mph - N/A   Clear
6:53 PM 91.9 °F 91.2 °F 59.0 °F 33% 29.86 in 10.0 mi ENE 10.4 mph - N/A   Clear
7:53 PM 89.1 °F 88.2 °F 59.0 °F 36% 29.87 in 10.0 mi ENE 10.4 mph - N/A   Clear
8:53 PM 86.0 °F 85.0 °F 57.9 °F 38% 29.88 in 10.0 mi ENE 6.9 mph - N/A   Clear
9:53 PM 82.9 °F 82.6 °F 57.9 °F 42% 29.90 in 10.0 mi ENE 5.8 mph - N/A   Clear
10:53 PM 82.0 °F 83.0 °F 62.1 °F 51% 29.93 in 10.0 mi East 9.2 mph - N/A   Clear
11:53 PM 79.0 °F - 61.0 °F 54% 29.96 in 10.0 mi ENE 8.1 mph - N/A   Clear